Total_Precipitation_Accumulation
3.16 2.97 2.97 2.40 2.00 1.72 1.64 1.70 1.73 1.79 1.83 1.96 2.05 2.03 2.05 2.09 2.22 2.24 2.22 2.22 2.31 2.52 2.71 3.00 3.27 3.54 3.56 3.58 3.38 3.21 2.92 2.47 2.13 1.90 1.68 1.59 1.73 2.02 2.24 2.45 2.38 1.82 1.73
2.22 2.27 2.41 2.02 1.82 1.66 1.61 1.71 1.76 1.82 1.89 1.96 2.04 2.10 2.11 2.16 2.17 2.10 2.10 2.13 2.29 2.42 2.50 2.73 2.90 3.02 3.02 3.03 2.94 2.82 2.58 2.61 2.38 2.07 1.87 1.61 1.75 2.02 2.21 2.32 2.37 1.82 1.80
1.34 1.55 1.72 1.73 1.69 1.60 1.58 1.77 1.85 1.85 1.86 1.92 2.06 2.17 2.26 2.27 2.16 2.06 2.09 2.15 2.27 2.32 2.39 2.58 2.68 2.67 2.58 2.60 2.47 2.37 2.34 2.60 2.54 2.44 2.37 1.59 1.43 1.91 2.11 2.09 1.91 1.60 1.62
1.11 1.29 1.43 1.56 1.48 1.38 1.42 1.48 1.61 1.71 1.68 1.79 2.06 2.17 2.25 2.20 2.11 2.06 1.99 2.05 2.22 2.38 2.52 2.54 2.47 2.32 2.12 2.10 2.08 2.07 2.25 2.57 2.62 2.69 2.61 1.85 1.27 1.61 1.90 1.78 1.56 1.42 1.35
1.05 1.27 1.42 1.36 1.23 1.12 1.08 1.17 1.37 1.53 1.66 1.79 1.92 1.97 2.01 1.99 2.04 1.98 1.91 2.02 2.26 2.67 2.78 2.57 2.32 2.05 1.88 1.79 1.79 1.93 2.22 2.64 2.74 2.44 2.02 1.76 1.44 1.62 1.71 1.59 1.44 1.38 1.28
0.96 1.02 1.07 1.14 1.04 0.98 0.98 1.05 1.19 1.32 1.52 1.71 1.77 1.83 1.95 2.02 2.03 1.97 2.00 2.17 2.46 2.77 2.71 2.49 2.25 1.98 1.84 1.71 1.74 1.90 2.13 2.63 2.58 1.93 1.62 1.54 1.35 1.52 1.64 1.67 1.58 1.61 1.47
0.71 0.74 0.77 0.89 0.89 0.91 0.90 0.97 1.13 1.32 1.50 1.52 1.65 1.97 2.12 2.10 2.10 2.14 2.21 2.41 2.52 2.56 2.48 2.40 2.17 1.99 1.85 1.80 1.80 1.88 2.07 2.32 2.20 1.73 1.65 1.63 1.35 1.40 1.60 1.76 1.79 1.81 1.68
0.57 0.68 0.78 0.87 0.87 0.86 0.87 0.99 1.17 1.34 1.45 1.50 1.66 1.90 2.04 2.03 2.06 2.19 2.32 2.46 2.45 2.42 2.30 2.16 1.95 1.90 1.86 1.82 1.75 1.74 1.86 1.88 1.64 1.58 1.47 1.41 1.18 1.31 1.54 1.68 1.73 1.76 1.72
0.74 0.82 0.96 1.01 1.02 1.07 1.16 1.23 1.34 1.46 1.55 1.65 1.74 1.77 1.86 1.97 2.04 2.17 2.33 2.42 2.41 2.30 2.07 2.00 1.95 1.91 1.83 1.73 1.64 1.67 1.80 1.86 1.60 1.56 1.35 1.34 1.35 1.49 1.62 1.70 1.76 1.73 1.67
1.11 1.02 1.07 1.20 1.33 1.27 1.29 1.45 1.53 1.59 1.61 1.64 1.67 1.76 1.89 2.10 2.20 2.33 2.39 2.56 2.59 2.37 2.05 2.14 2.06 1.84 1.75 1.71 1.68 1.73 1.90 1.77 1.48 1.45 1.56 1.32 1.47 1.73 1.96 2.02 2.03 2.02 1.82
1.46 1.23 1.12 1.06 1.21 1.36 1.39 1.43 1.61 1.67 1.71 1.79 1.95 2.05 2.24 2.44 2.43 2.77 2.83 3.05 3.01 2.65 2.40 2.43 2.25 2.02 1.81 1.74 1.86 1.97 1.87 1.68 1.61 1.62 1.65 1.41 1.45 1.82 2.17 2.26 2.28 2.34 2.17
1.64 1.43 1.31 1.26 1.21 1.33 1.36 1.58 1.94 1.83 1.93 2.12 2.43 2.56 2.79 2.93 2.96 2.69 3.21 3.63 3.56 3.32 3.03 2.99 2.77 2.33 1.95 1.87 2.49 2.49 1.77 1.75 1.84 1.78 1.65 1.57 1.66 2.04 2.44 2.39 2.36 2.44 2.40
1.95 1.71 1.50 1.47 1.51 1.49 1.63 1.63 1.90 2.15 2.38 2.48 2.55 2.65 2.90 2.87 2.81 2.86 3.36 3.69 3.66 3.49 3.41 3.54 3.27 2.72 2.61 2.73 2.83 2.51 1.88 1.88 2.25 2.15 2.16 2.17 2.20 2.54 2.91 2.74 2.59 2.52 2.47
2.01 1.99 1.90 1.82 1.81 1.85 1.73 1.90 1.94 2.03 2.25 2.46 2.65 2.64 2.79 3.17 3.21 3.26 3.54 3.50 3.56 3.55 3.87 3.68 3.74 3.44 3.08 2.82 2.69 2.52 2.30 2.22 2.38 2.49 2.67 2.40 2.43 2.80 3.34 3.27 2.93 2.80 2.62
2.37 2.32 2.19 2.13 2.19 2.18 2.19 2.25 2.06 2.17 2.29 2.41 2.63 2.80 2.81 3.09 3.28 3.43 3.57 3.53 3.14 3.09 3.39 3.67 3.56 3.63 3.55 3.31 2.96 2.78 2.66 2.62 2.51 2.70 2.95 2.78 2.69 2.89 3.31 3.55 3.46 3.25 3.04
2.68 2.53 2.37 2.35 2.44 2.51 2.53 2.63 2.58 2.39 2.51 2.47 2.75 2.80 2.85 2.97 3.22 3.52 3.63 3.59 3.20 3.05 3.25 3.45 3.35 3.66 3.58 3.53 3.13 2.89 2.77 2.65 2.42 2.57 2.89 2.98 2.78 2.76 3.06 3.59 3.88 3.75 3.58
3.10 2.94 2.72 2.65 2.80 3.03 3.17 3.18 3.07 2.86 2.62 2.63 2.76 2.81 2.92 2.95 3.24 3.31 3.33 3.36 3.33 3.12 3.24 3.33 3.35 3.52 3.37 3.22 3.20 3.09 2.95 2.88 2.59 2.59 2.74 3.02 2.88 2.74 2.88 3.28 3.73 3.85 3.74
3.25 3.22 2.94 2.73 3.18 3.56 3.66 3.69 3.48 3.20 2.83 2.76 2.82 2.91 3.02 3.12 3.27 3.46 3.22 3.13 3.44 3.33 3.44 3.76 3.68 3.77 3.89 3.71 3.48 3.19 3.02 3.11 2.68 2.63 2.75 3.05 3.24 2.80 2.99 3.30 3.63 3.72 3.87
3.35 3.33 3.28 3.38 3.52 3.69 3.78 3.91 3.69 3.46 3.23 2.97 2.88 2.89 3.00 3.13 3.26 3.62 3.49 3.53 3.56 3.57 3.61 3.25 3.78 4.09 4.16 3.99 3.47 3.24 2.96 2.95 2.78 2.62 2.71 2.66 2.88 2.92 2.97 3.05 3.43 3.51 3.86
3.48 3.62 3.56 3.68 3.86 4.14 4.34 4.53 4.17 3.80 3.52 3.24 3.05 3.10 3.16 3.37 3.50 3.81 3.70 3.64 3.56 3.71 3.71 3.69 4.13 4.10 3.84 3.87 3.19 2.90 2.80 2.60 2.60 2.57 2.36 2.42 2.59 2.55 2.71 2.84 3.18 2.81 3.15
3.69 3.86 3.86 4.11 4.54 4.88 4.73 4.41 4.24 4.00 3.77 3.55 3.28 3.19 3.24 3.24 3.42 3.78 3.61 3.86 3.79 3.65 3.57 3.54 3.89 3.99 3.71 3.90 3.87 3.42 2.85 2.34 2.35 2.24 2.20 2.37 2.37 2.43 2.65 2.98 3.30 3.26 3.00
3.72 4.15 4.28 4.48 4.87 5.02 4.87 4.74 4.59 4.44 4.04 3.91 3.78 3.63 3.25 3.07 3.19 3.23 3.55 3.36 3.46 3.64 3.53 3.64 3.96 3.86 3.49 3.96 4.19 4.34 3.68 3.19 2.57 2.00 2.31 2.48 2.54 2.77 2.75 2.91 3.35 3.61 3.36
3.01 3.27 3.56 4.06 4.59 4.81 4.88 4.78 4.73 4.74 4.28 4.02 3.89 3.72 3.35 3.07 2.97 3.10 3.26 3.33 3.40 3.32 3.44 3.65 3.73 3.78 3.69 3.82 4.05 4.40 4.06 3.54 2.96 2.32 2.15 2.29 2.63 2.92 2.87 2.93 2.94 3.24 3.27
2.29 2.60 3.02 3.49 3.86 4.11 4.21 4.22 4.26 4.22 4.14 4.05 3.91 3.55 3.31 3.07 2.94 3.01 3.13 3.20 3.26 3.09 3.24 3.08 3.21 3.70 3.82 3.65 3.81 3.72 3.70 3.63 3.45 2.88 2.37 2.19 2.35 2.50 2.62 2.50 2.49 2.79 3.09
2.13 2.44 2.76 3.09 3.39 3.57 3.68 3.77 3.89 3.78 3.80 3.70 3.54 3.34 3.13 2.98 2.84 2.61 2.73 2.98 3.06 2.93 2.85 2.87 3.12 3.26 3.23 3.25 3.42 3.49 3.56 3.58 3.26 3.08 2.69 2.37 2.20 1.96 2.05 2.16 2.25 2.35 2.54
2.21 2.56 2.85 3.09 3.33 3.40 3.20 3.10 3.14 3.20 3.27 3.22 3.08 2.91 2.70 2.65 2.57 2.40 2.44 2.71 2.81 2.77 2.71 2.68 2.76 2.82 2.88 2.93 3.04 3.10 3.30 3.35 3.31 3.40 2.92 2.51 2.29 1.79 1.71 1.87 1.99 2.09 2.28